Погода Маслянино

Погода Маслянино : погода сейчас, прогноз погоды и архив. Всё, что Вы хотите узнать о погоде Маслянино!

Хотите узнать прогноз погоды Маслянино? Тогда Вам сюда: Погода Маслянино

Поиск расширенной информации на нашем сайте:

Другие новости

Новости СМИ2

Главная страница сайта

Новости сайта

03.07.2017

Напоминаем, что на нашем специализированном сайте Метеоцентр.Азия вы можете получить высокодетализированные автоматические прогнозы погоды по пунктам России, СНГ и мира в авиационном формате (включающие направление и скорость ветра, видимость, явления погоды, количество и форму облачности, нижнюю и верхнюю границу облачности).

Рекомендуем: Ремонт - Евроремонт офиса, екатеринбург

Погода Маслянино - сегодня

Время (UTC), дата Ветер
(°,м/с) 
Видим.   Явления Облачность Т
(°С)
Тd
(°С)
f(%) Тe
(°С)
Pmin
(гПа)
dP
(гПа)
Po
(мм)
O2
(г/м3)
Тmin Tmax R s Состояние
почвы
15 20.02.18 150 (ЮВ) 20000 м    8/0 средняя 
[Ac trans]
-10.8 -14.4 75 -11  1034.7  -1.2  756  319           
18 20.02.18 тихо ()   20000 м    8/0 средняя 
[Ac trans]
-14.1 -16.1 85 -14  1033.8  -1.2  755  322           
21 20.02.18 тихо ()   20000 м    8/0 средняя, верхняя 
[Ac trans|Ci fib]
-15.5 -17.6 84 -16  1032.7  -1.2  754  324           
00 21.02.18 тихо ()   20000 м    8/0 средняя, верхняя 
[Ac trans|Ci fib]
-17.4 -19.7 82 -17  1031.9  -1  754  326  -17.6      43  неравномерный
сухой снег
100% 
03 21.02.18 тихо ()   10 км    10/0 верхняя 
[Ci fib]
-17.7 -20.2 81 -18  1031.2  -0.7  753  326  -18.8         
06 21.02.18 180 (Ю) 20000 м    8/0 верхняя 
[Ci fib]
-8.5 -13.6 67 -8  1028.9  -1.3  752  314           
09 21.02.18 тихо ()   20000 м    6/0 верхняя 
[Ci fib]
-0.5 -12.1 41 -1  1026.1  -2  751  304           
12 21.02.18 тихо ()   20000 м    4/0 верхняя 
[Ci fib]
-9.2 -13.8 69 -9  1025  -1.9  749  314    -0.4       
15 21.02.18 тихо ()   20000 м    4/0 верхняя 
[Ci fib]
-15 -17 85 -15  1023.5  -2  748  320           
18 21.02.18 тихо ()   20000 м    10/0 верхняя 
[Ci fib]
-15.6 -17.7 84 -16  1021.5  -2.1  746  320           
21 21.02.18 тихо ()   20000 м    10/0 верхняя 
[Ci fib]
-13.1 -15.4 83 -13  1019.2  -2  745  316           
00 22.02.18 190 (Ю) 20000 м    10/0 верхняя 
[Ci fib]
-12.5 -14.8 83 -12  1017.9  -1.1  744  315  -16.5      43  неравномерный
сухой снег
100% 
03 22.02.18 120 (ЮВ) 4000 м  слаб. снег  10/0 средняя 
[As op]
-6.7 -9.3 82 -9  1016.7  -0.5  743  308           
06 22.02.18 190 (Ю) 4000 м  слаб. снег  10/0 средняя 
[As op]
-3.4 -5.1 88 -6  1015.5  -0.9  743  304           
09 22.02.18 240 (ЮЗ) 5-10{12}  4000 м  слаб. ливневой снег  10/10 300 м кучево-дожд. 
[Cb cap]
-2.6 -6.9 72 -6  1016  0.6  743  303           
12 22.02.18 240 (ЮЗ) 5{12}  4000 м  слаб. ливневой снег  10/8 300 м кучево-дожд., верхняя 
[Cb cap|Ci fib]
-6.6 -10.5 74 -11  1019.5  745  309    -2.4  0.5     
18 22.02.18 170 (Ю) 20000 м  {ливн. осадки}  ясно 
-15.1 -16.9 86 -15  1025.8  2.1  749  321           
21 22.02.18 160 (Ю) 20000 м    ясно 
-17.7 -20 82 -18  1027.4  1.3  750  325           
00 23.02.18 тихо ()   20000 м    3/0 средняя 
[Ac trans]
-19.7 -22.3 80 -20  1027.8  0.1  750  328  -19.8    0.0  42  неравномерный
сухой снег
100% 
06 23.02.18 180 (Ю) 20000 м  {снег}  10/0 средняя 
[As op]
-11.2 -14.3 78 -16  1025.6  -1  750  316           
09 23.02.18 180 (Ю) 4000 м  слаб. снег  10/0 средняя 
[As op]
-10 -13.4 76 -15  1024.3  -1.2  749  314           
12 23.02.18 190 (Ю) 10 км  слаб. снег  10/0 средняя 
[As op]
-10.2 -13.4 77 -13  1023.7  -0.6  748  314    -9.9  0.3     
15 23.02.18 210 (ЮЗ) 4000 м  слаб. ливневой снег  10/10 300 м кучево-дожд. 
[Cb cap]
-11.4 -13.6 84 -13  1023.7  748  316           
18 23.02.18 тихо ()   20000 м  {ливн. осадки, снег}  10/5 600 м средняя 
[Sc|Ac und]
-13.3 -14.7 89 -13  1023.9  -0.1  748  318           
21 23.02.18 тихо ()   20000 м    10/0 средняя 
[Ac und]
-13.9 -15.6 87 -14  1023.7  -0.2  748  319           
Время (UTC), дата Ветер
(°,м/с) 
Видим.   Явления Облачность Т
(°С)
Тd
(°С)
f(%) Тe
(°С)
Pmin
(гПа)
dP
(гПа)
Po
(мм)
O2
(г/м3)
Тmin Tmax R s Состояние
почвы

Для получения пояснительной информации подведите курсор к названию столбца.

ПОГОДА Маслянино - архив

Всё, что Вы хотите узнать о погоде Маслянино - удобно и подробно!

Выберите нужную дату (начиная с 1 января 2015* года) и нажмите кнопку "Найти".
Будут отображены архивные сводки погоды по пункту Маслянино, начиная с указанной даты.


Отображать данные в формате CSV (для использования в таблицах Excel)


Внимание! Наш архив погоды предназначен исключительно для личного некоммерческого использования в познавательных целях. Если Вам необходимы официальные справки о состоянии погоды (для производственных, юридических, коммерческих и т.п. целей), обращайтесь в органы Росгидромета.

*Примечание: данная дата относится к архиву по метеостанциям СССР (Россия, СНГ, Балтия).
Архив по метеостанциям Зарубежной Европы и Азии (кроме Китая) хранится 10 дней, по другим регионам земного шара (Китай, Африка, Америка, Австралия, Океания) - 1 день.

Маслянино - район местоположения метеостанции


Название, широта, долгота, высота метеостанции:
Маслянино 54.3°ш. 84.2°д. 198 м над ур. моря [Российская Федерация]

Дополнительная информация

В oтличие oт бoльшинства пoгoдных сайтoв мы публикуем пoдрoбную метеoинфoрмацию в детальнoм прoфессиoнальнoм фoрмате.

Характеристики температуры и влажнoсти вoздуха измеряются на высoте 2 м в тени вдали oт зданий и деревьев.
Скoрoсть ветра измеряется на высoте 10 м (на урoвне рoста челoвека скoрoсть ветра ниже в 1.5-2 раза). Если метеoстанция нахoдится в гoрoде или в лесу, тo скoрoсть ветра занижена на 2-4 м/с пo сравнению с oткрытым местoм. Скoрoсть ветра над акватoриями крупных рек и oзёр, а также на вершинах хoлмoв на 2-5 м/с выше, чем в oбычных услoвиях.
Атмoсфернoе давление в разных тoчках местнoсти мoжет значительнo oтличаться oт давления на метеoстанции, в зависимoсти oт услoвий рельефа (при пoдъёме на 10 м давление пoнижается примернo на 1 мм рт.ст.).